Location: *
(48.1359°S, 172.7136°W)
Time: 03:48:58
(UTC+00:00)

Daily predictions for brighter satellites

Satellite Brightness Start Highest point End
(mag) Time Altitude Azimuth Time Altitude Azimuth Time Altitude Azimuth
USA 215 3.4 04:18:58 10° SE 04:25:39 76° NE 04:32:14 10° NW
BREEZE-M DEB (TANK) 3.9 04:23:16 10° WSW 04:26:24 34° NNW 04:28:33 10° NE
Cosmos 1461 3.5 04:21:59 10° NNW 04:26:28 49° ENE 04:30:55 10° SE
SL-4 R/B 2.0 04:23:07 10° WSW 04:27:27 89° SSE 04:31:26 10° ENE
Cosmos 1869 Rocket 4.0 04:24:41 10° NNE 04:28:50 44° E 04:33:05 10° SSE
Cosmos 2227 4.4 04:23:40 10° NNW 04:29:21 77° WSW 04:35:04 10° SSE
COSMO-SKYMED 1 2.6 04:25:25 10° NNE 04:29:47 70° ESE 04:34:13 10° S
CZ-2C R/B 2.9 04:26:16 10° S 04:30:06 74° WSW 04:33:49 10° NNW
Cosmos 1943 4.4 04:28:17 10° SW 04:33:50 50° WNW 04:39:19 10° N
CZ-4B R/B 4.5 04:31:34 10° SSE 04:34:59 32° E 04:38:19 10° NNE
Meteor 1-31 Rocket 3.6 04:32:16 10° SSE 04:35:48 32° E 04:39:16 10° NNE
Magion-5 4.1 04:29:22 10° NW 04:36:05 79° SW 04:41:27 10° SE
Cosmos 2263 Rocket 3.1 04:30:54 10° NW 04:36:24 48° SW 04:41:59 10° SSE
ISS -3.5 04:33:42 10° WSW 04:37:05 56° SSE 04:40:28 10° E
In-Cosmos 22 4.4 04:33:02 10° S 04:38:32 51° ESE 04:43:51 10° NNE
Meteor 1-21 4.4 04:33:34 10° S 04:39:22 54° ESE 04:45:04 10° NNE
Landsat 5 4.5 04:38:13 10° ENE 04:41:13 22° ESE 04:44:16 10° SSE
ARIANE 5 R/B 4.4 04:37:00 10° S 04:41:25 28° WSW 04:45:46 10° WNW
CZ-3B R/B 3.5 04:37:52 10° NNW 04:42:36 25° NE 04:45:03 11° E
Cosmos 1733 Rocket 4.2 04:41:20 10° NE 04:44:49 24° E 04:48:20 10° SE
CZ-4B R/B 3.7 04:40:24 10° SSE 04:45:22 73° WSW 04:50:23 10° NNW
Cosmos 2242 Rocket 3.8 04:41:12 10° S 04:45:52 84° W 04:50:25 10° N
Envisat 3.8 04:44:04 10° S 04:49:06 53° WSW 04:54:04 10° NW
Cosmos 1809 Rocket 4.5 04:43:33 10° N 04:49:38 68° E 04:55:47 10° SSE
YAOGAN 6 4.4 04:47:39 10° S 04:50:52 31° WSW 04:54:04 10° NW
Cosmos 2297 Rocket 4.5 04:50:52 10° SW 04:53:00 12° SSW 04:55:09 10° S
KORONAS-FOTON 4.2 04:51:36 10° S 04:55:21 41° ESE 04:59:04 10° NNE
Cosmos 1844 Rocket 2.7 04:53:08 10° NNW 04:58:45 67° ENE 05:04:27 10° SSE
Meteor 1-4 Rocket 3.4 04:57:22 10° NNE 05:00:28 29° E 05:02:42 15° SE
USA 267 3.6 04:54:54 10° NE 05:01:29 74° NW 05:08:08 10° WSW
Cosmos 2056 Rocket 3.7 04:57:03 10° SSW 05:02:07 49° ESE 05:07:13 10° NE
Cosmos 1420 Rocket 4.3 05:01:20 10° SSW 05:06:23 44° ESE 05:11:22 10° NE
TSX-5 3.6 05:02:59 10° SSW 05:06:40 48° SE 05:09:50 10° NE
BREEZE-M DEB (TANK) 2.1 05:05:23 10° WSW 05:07:35 78° NNW 05:11:15 10° ENE
SL-19 R/B 4.4 05:03:56 10° NE 05:09:32 57° ESE 05:15:04 10° S
Cosmos 1939 Rocket 3.0 05:05:41 10° SSE 05:09:46 57° E 05:13:51 10° N
Cosmos 1378 Rocket 4.2 05:07:54 10° S 05:12:02 34° ESE 05:16:08 10° NE
ATLAS CENTAUR R/B 2.7 05:11:38 10° WNW 05:14:46 27° SW 05:17:32 12° SSE
Cosmos 1733 4.1 05:14:12 10° NNE 05:17:33 29° E 05:18:41 24° ESE
Cosmos 1707 3.0 05:13:49 10° SSW 05:17:46 71° W 05:21:38 10° N
Nadezhda 4 Rocket 4.2 05:14:20 10° NNW 05:20:40 79° W 05:27:07 10° S
Cosmos 1553 Rocket 4.4 05:16:17 10° S 05:22:07 40° ESE 05:27:56 10° NE
Cosmos 1674 Rocket 3.9 05:18:05 10° S 05:22:17 42° ESE 05:26:26 10° NNE
Okean 2 3.3 05:18:25 10° S 05:22:37 77° E 05:26:47 10° NNE
ATLAS 5 CENTAUR R/B 2.5 05:20:23 10° SW 05:26:12 42° SE 05:28:56 24° E
Cosmos 1626 2.0 05:24:55 10° S 05:28:41 82° E 05:32:23 10° N
CENTAUR R/B 4.0 05:24:16 10° SW 05:29:03 20° S 05:31:57 14° SSE
Cosmos 1833 Rocket 3.1 05:25:23 10° SSW 05:30:43 39° SE 05:34:16 19° ENE
Cosmos 1818 4.1 05:25:46 10° NW 05:31:03 55° SW 05:35:16 16° SSE
Cosmos 405 Rocket 3.4 05:27:32 10° SSW 05:31:22 57° W 05:35:14 10° N
Cosmos 1627 Rocket 4.4 05:26:54 10° N 05:33:07 69° E 05:39:20 10° SSE
H-2A R/B 2.2 05:28:53 10° SSE 05:34:02 53° E 05:39:15 10° N
Cosmos 1674 2.8 05:30:22 10° SSW 05:34:13 76° W 05:38:03 10° N
Cosmos 1975 3.4 05:30:33 10° NNW 05:34:32 58° WSW 05:38:38 10° S
ADEOS 3.6 05:29:47 10° SSE 05:35:03 61° ENE 05:40:15 10° N
NOSS 3-1 (C) 4.3 05:26:52 10° NNW 05:35:42 61° ENE 05:41:06 22° SE
Cosmos 1908 Rocket 4.5 05:31:54 10° NNE 05:35:25 29° E 05:35:25 29° E
Cosmos 2026 Rocket 3.9 05:29:59 10° N 05:36:12 72° E 05:42:24 10° SSE
Cosmos 923 Rocket 4.4 05:35:07 10° NW 05:40:19 63° WSW 05:45:17 11° SSE
Gbstr 26 Del rocket 4.1 05:35:21 10° WSW 05:40:48 52° NW 05:45:04 11° NE
SeaSat 1 3.5 05:41:20 25° ENE 05:41:20 25° ENE 05:45:12 10° NNE
CZ-4B R/B 3.3 05:40:15 23° SSE 05:42:56 54° E 05:47:24 10° N
Cosmos 1844 3.9 05:37:52 10° NW 05:43:27 72° WSW 05:48:01 16° SSE
Cosmos 2221 Rocket 3.6 05:39:08 10° S 05:43:39 84° W 05:48:07 10° N
Cosmos 1680 Rocket 3.7 05:42:07 10° NNW 05:47:22 72° WSW 05:51:51 15° SSE
SL-14 R/B 3.2 05:44:44 10° S 05:48:37 55° ESE 05:52:27 10° NNE
Meteor 2-16 Rocket 4.5 05:43:53 10° N 05:50:01 83° W 05:56:16 10° S
NOSS 3-1 (A) 4.4 05:43:12 10° N 05:51:44 49° ENE 05:55:32 30° ESE
Elektron 1 4.5 05:49:05 10° NW 05:52:09 68° SW 05:53:38 37° SSE
CZ-4C R/B 2.9 05:44:47 10° NNW 05:53:05 67° NE 05:57:02 29° SE
ATLAS 3B R/B 3.5 05:51:09 10° WNW 05:58:23 51° SW 06:03:17 20° SSE
Cosmos 2112 Rocket 4.3 05:54:06 10° NNW 05:59:20 67° WSW 06:03:15 18° SSE
SMAP 3.0 05:56:30 22° SSE 05:59:33 80° ENE 06:04:16 10° N
Cosmos 2082 Rocket 3.1 05:55:29 10° SSW 05:59:55 30° SE 05:59:55 30° SE
ARGOS 3.3 05:59:31 38° SE 06:01:07 50° E 06:06:22 10° N
Cosmos 1092 Rocket 4.4 05:57:01 10° NNW 06:03:22 67° WSW 06:09:48 10° S
Cosmos 1452 Rocket 3.6 05:58:09 10° SSW 06:03:27 55° ESE 06:04:43 44° ENE
CZ-4C R/B 2.9 05:59:56 10° NNE 06:03:28 88° WNW 06:07:02 10° SSW
CZ-2D R/B 3.2 06:04:38 58° SSE 06:05:23 89° ENE 06:09:18 10° NNW
SL-4 R/B 4.1 06:03:14 10° W 06:06:31 23° NW 06:09:31 10° N
USA 215 3.7 06:05:15 29° SE 06:08:29 53° SSW 06:14:51 10° W
ISS -2.7 06:10:33 10° WSW 06:13:43 43° NW 06:13:43 43° NW
AQUARIUS 4.1 06:13:13 40° S 06:14:53 86° WSW 06:19:26 10° NNW
Cosmos 2278 Rocket 2.9 06:12:42 10° N 06:16:45 36° NE 06:16:45 36° NE
Meteor PRIRODA 4.5 06:18:07 39° SSW 06:19:04 50° WSW 06:22:41 10° NNW
BREEZE-M DEB (TANK) 3.9 06:19:03 10° WNW 06:19:48 21° WNW 06:19:48 21° WNW
Cosmos 1733 Rocket 4.5 06:18:19 10° NW 06:22:23 37° WSW 06:26:16 11° S
Cosmos 2266 Rocket 4.1 06:17:55 10° NNE 06:23:31 51° ENE 06:23:31 51° ENE
Cosmos 909 Rocket 3.9 06:31:15 10° NW 06:37:43 90° WSW 06:38:58 60° SE
Meteor 2-10 4.4 06:32:47 10° NNW 06:38:28 72° WSW 06:41:41 28° S
Meteor 1-15 Rocket 4.1 06:35:49 10° N 06:41:37 84° ENE 06:41:37 84° ENE
Cosmos 1844 Rocket 4.5 06:38:23 10° WNW 06:43:09 27° SW 06:46:22 17° S
NOAA 6 4.4 06:43:34 42° S 06:45:09 63° WSW 06:50:18 10° NNW
COSMOS 2406 3.4 06:44:19 10° SSW 06:49:13 64° SSW 06:49:13 64° SSW
Meteor 2-5 Rocket 4.4 07:03:42 10° SSW 07:08:05 49° SW 07:08:05 49° SW
ATLAS 5 CENTAUR R/B 3.0 07:05:31 10° SW 07:10:26 42° WNW 07:10:26 42° WNW
H-2A R/B 4.0 07:09:29 13° SSW 07:13:10 26° WSW 07:17:29 10° WNW
USA 229 DEB 3.8 07:06:26 10° NW 07:14:10 87° WNW 07:14:10 87° WNW
USA 229 3.8 07:06:31 10° NW 07:14:11 86° NW 07:14:11 86° NW
Cosmos 1833 Rocket 3.8 07:09:23 10° SW 07:14:40 40° WNW 07:16:05 34° NW
SeaSat 1 4.0 07:21:07 31° WNW 07:21:07 31° WNW 07:23:46 10° NW
Cosmos 1655 Rocket 4.4 07:14:58 10° NNW 07:20:23 59° WNW 07:20:23 59° WNW
CENTAUR R/B 4.2 07:16:31 10° SSW 07:19:07 20° SSW 07:19:07 20° SSW
CZ-4C R/B 3.6 07:34:35 10° WNW 07:42:07 43° SW 07:42:14 43° SW
NOSS 3-1 (A) 4.4 07:34:09 10° WNW 07:42:51 59° SW 07:43:01 59° SW
Cosmos 2082 Rocket 4.0 07:39:22 10° SW 07:41:48 25° SW 07:41:48 25° SW
ATLAS 3B R/B 4.4 07:45:01 10° WSW 07:50:32 24° SSW 07:50:32 24° SSW
USA 215 4.5 07:52:35 35° SSW 07:52:35 35° SSW 07:56:54 10° WSW
Cosmos 2278 Rocket 4.4 07:56:48 10° WNW 07:58:39 20° WNW 07:58:39 20° WNW
